Theta_e
321 319 315 313 309 309 310 310 310 310 309 307 309 309 309 310 311 311 311 309 309 310 310 310 311 311 311 311 313 314 315 314 315 316 316 316 318 319 319 319 318 318 320
319 316 313 311 309 309 310 310 310 310 308 308 308 308 310 311 311 312 312 311 311 311 311 311 311 311 313 313 313 313 313 314 314 315 316 316 318 319 319 319 319 319 319
317 314 314 311 310 310 310 310 311 310 309 309 309 309 310 311 311 312 312 312 312 311 310 311 312 312 313 313 313 314 315 315 314 313 315 317 318 318 319 319 319 319 318
315 314 314 312 311 310 311 311 311 310 308 309 309 309 309 311 311 311 311 312 312 312 312 311 311 313 314 315 316 317 317 317 314 314 315 316 318 319 318 318 320 319 319
314 314 314 312 311 311 312 311 311 310 309 310 309 309 309 310 310 310 310 311 312 313 312 311 311 315 315 316 316 318 319 318 317 316 317 318 319 319 319 320 320 319 318
314 314 314 314 312 312 313 312 311 311 311 311 310 310 310 310 309 308 307 309 312 312 311 312 315 317 317 316 317 317 317 319 319 319 319 320 320 320 319 318 317 317 318
315 314 314 314 313 314 314 314 313 313 312 311 312 311 310 311 309 308 307 310 312 313 313 314 317 317 316 316 314 313 314 314 315 317 319 319 319 317 317 318 318 318 317
315 315 314 314 314 314 315 314 314 314 313 312 312 312 311 311 308 308 308 312 314 313 315 316 318 319 318 314 316 317 318 318 316 316 316 318 317 316 315 318 317 318 316
315 315 314 314 314 315 315 316 315 315 314 314 313 312 312 312 309 307 310 313 314 315 317 318 319 318 315 313 314 317 319 318 316 315 315 316 316 316 315 315 316 317 317
312 313 313 314 314 313 313 316 316 315 314 313 313 312 311 310 310 308 312 314 314 315 315 315 313 312 315 315 317 319 319 319 318 318 316 316 317 317 316 315 317 318 315
314 313 313 315 315 315 313 312 314 315 315 314 314 314 312 311 310 308 312 314 315 315 315 315 315 313 313 314 314 319 318 318 318 318 318 317 317 316 316 316 317 317 317
317 316 315 315 314 315 314 314 313 315 315 315 315 314 313 312 310 308 311 313 313 315 316 317 315 313 312 313 314 315 315 315 317 316 317 318 318 319 318 317 318 317 317
313 315 315 315 314 314 314 313 313 313 313 315 314 314 313 312 312 309 308 313 313 313 315 315 315 314 312 312 313 313 313 316 319 319 318 318 317 318 315 316 316 316 315
303 304 306 309 311 314 315 314 313 312 313 314 314 314 314 313 313 312 310 311 313 312 313 314 314 315 315 314 312 313 315 317 319 319 318 317 315 317 316 317 317 315 314
295 296 300 301 303 305 308 310 312 313 312 310 311 312 313 313 314 312 310 311 313 315 314 314 315 316 316 316 315 315 317 318 319 319 318 317 316 316 316 317 316 314 314
294 296 297 297 298 300 300 301 304 304 305 307 309 309 309 309 308 309 309 309 308 311 312 314 316 316 314 314 315 316 316 316 319 319 318 317 317 317 317 317 315 316 317
293 293 291 292 293 294 294 296 297 298 297 297 300 301 304 302 302 305 306 305 306 308 311 314 315 316 314 312 314 315 316 317 318 319 317 317 316 317 316 317 317 316 317
290 290 290 290 290 290 291 291 291 292 294 295 296 295 297 294 292 296 302 300 302 303 309 313 314 315 315 314 313 315 316 316 318 318 317 317 317 315 315 315 316 316 315
288 288 288 289 289 289 289 290 290 290 291 292 292 292 293 292 292 293 296 300 305 309 309 309 312 314 315 315 315 314 316 316 317 318 317 317 316 316 317 316 315 315 316
288 287 287 288 288 288 289 289 289 289 290 290 291 290 290 289 291 292 293 296 301 304 306 309 310 312 313 314 314 315 314 316 315 318 318 319 317 316 316 317 317 317 318
288 288 287 288 288 288 288 288 288 288 289 289 290 290 289 289 290 292 292 293 293 294 299 304 307 310 311 312 314 314 314 314 316 316 317 318 319 318 318 317 317 317 318
287 287 287 287 287 287 287 288 288 288 288 288 289 289 289 290 290 291 291 291 292 294 293 294 296 303 309 311 312 313 314 314 315 316 316 317 318 319 318 318 318 318 318
287 287 287 287 287 287 287 288 288 288 288 288 288 289 289 290 290 290 290 290 291 292 294 294 293 295 299 308 311 312 313 314 314 315 316 317 317 317 318 318 318 318 318
287 287 287 287 287 287 287 287 287 287 287 288 289 289 289 289 289 289 289 289 289 290 291 292 292 293 297 299 307 310 312 313 314 314 315 316 316 316 316 317 318 318 318
287 287 287 287 287 287 287 287 287 287 288 288 289 288 289 289 288 288 289 289 289 289 289 290 292 293 292 293 296 305 311 312 312 314 314 315 316 316 316 316 316 317 318
287 287 287 287 287 287 287 287 287 287 288 288 288 288 288 287 288 289 289 289 289 289 289 290 290 293 293 293 296 298 305 310 311 312 313 314 315 316 316 316 315 316 317
Wind_Speed
7 7 6 5 6 7 10 14 16 15 14 14 12 14 16 16 15 15 13 11 14 14 12 10 11 12 10 12 8 9 11 12 9 19 13 12 12 9 8 7 8 8 9
8 7 7 8 9 11 13 15 15 13 14 12 13 14 14 14 13 13 13 11 10 13 14 12 13 12 12 12 13 14 15 14 12 15 12 12 11 8 8 7 7 7 7
9 9 9 10 11 13 15 16 13 13 13 12 13 13 13 14 14 12 11 13 14 14 14 15 14 13 15 15 16 16 16 14 15 12 10 10 10 7 6 7 8 8 9
10 10 11 12 14 15 16 16 14 14 14 12 12 14 13 13 13 14 14 15 16 15 14 14 14 13 15 15 14 15 14 12 12 12 11 12 11 7 8 9 9 8 8
12 12 14 14 15 17 17 16 15 16 14 14 14 15 15 14 13 15 15 16 16 16 13 13 13 13 14 17 12 10 9 10 10 10 11 11 10 10 10 7 8 6 9
14 16 15 15 15 17 18 17 17 17 15 15 15 15 16 15 17 18 18 16 16 14 13 10 9 8 6 3 5 8 9 10 12 11 11 11 11 10 8 10 12 13 10
16 17 17 16 16 17 16 16 18 17 16 17 17 15 16 17 18 18 19 13 14 13 12 10 7 5 3 4 5 5 7 9 11 9 11 11 9 9 10 10 9 11 12
17 18 19 18 19 18 16 17 19 17 18 16 18 17 16 17 19 17 17 10 12 14 12 11 8 7 5 5 8 8 7 5 8 10 13 12 10 11 11 8 7 8 5
19 18 18 18 21 20 19 19 19 17 18 17 16 18 17 17 17 16 12 9 9 9 7 4 5 5 7 9 10 9 7 4 2 2 3 7 9 11 14 10 10 9 4
21 24 24 22 20 26 24 21 19 18 19 17 18 17 19 19 16 13 9 6 5 5 7 6 6 4 6 9 3 4 3 1 1 1 3 2 3 5 7 12 9 12 5
18 20 22 17 19 23 26 26 23 19 17 19 18 18 18 17 15 12 9 6 5 5 6 7 5 6 4 4 1 1 1 0 3 4 3 2 1 2 4 7 9 12 12
19 17 17 18 18 14 17 21 23 18 17 17 17 19 16 14 14 11 11 10 8 7 8 7 5 7 6 4 4 6 4 4 6 7 8 7 4 4 4 4 4 8 9
18 18 18 18 18 17 16 19 18 15 16 19 15 17 18 15 12 13 13 14 13 11 10 11 11 9 9 8 7 8 9 8 9 9 7 5 2 4 7 6 7 7 7
20 20 21 20 22 19 16 14 14 13 15 17 18 18 18 17 14 12 11 13 16 15 13 13 12 11 11 12 12 9 8 9 8 4 2 3 5 5 5 6 8 11 17
21 20 20 20 20 21 19 16 17 14 16 20 20 21 21 21 20 17 14 13 15 15 12 10 11 12 12 12 11 10 8 8 6 5 5 7 8 7 5 5 10 14 8
21 20 20 20 19 19 20 23 16 18 19 18 19 20 24 23 26 31 33 23 21 22 14 15 15 15 14 13 13 11 9 9 7 7 7 8 6 8 10 9 14 12 12
19 19 20 20 20 20 21 21 22 23 22 22 22 24 24 25 26 24 21 29 26 24 19 20 18 17 15 14 14 13 11 8 10 11 11 10 9 9 10 11 14 16 13
18 17 19 19 19 20 20 21 21 22 23 26 23 25 23 32 37 30 26 13 12 21 21 23 22 20 18 17 16 16 12 9 12 14 14 14 12 13 11 11 12 12 12
18 18 20 18 18 19 19 19 20 20 20 21 23 24 25 29 30 24 22 11 16 21 23 25 26 25 22 21 18 18 16 13 14 16 17 17 16 15 14 14 13 14 14
18 18 19 18 18 18 19 19 20 20 20 20 21 22 26 32 28 25 21 19 19 19 23 26 25 25 26 26 24 21 20 17 15 17 20 19 19 18 17 17 16 16 17
19 20 20 19 19 19 19 19 19 19 20 21 22 24 27 26 26 25 24 21 22 27 25 21 28 28 27 26 27 27 25 25 22 21 22 21 21 20 19 19 18 18 16
18 20 20 19 19 19 20 20 20 20 22 24 26 27 28 26 26 27 28 27 26 26 29 30 33 26 30 31 30 30 30 29 28 25 23 24 23 22 23 21 20 18 17
19 19 20 19 19 20 20 20 21 22 24 25 27 28 30 31 31 31 31 33 32 30 30 26 27 32 31 29 31 32 33 34 33 31 28 26 25 25 24 24 24 21 20
20 19 20 20 20 21 20 22 23 23 25 25 27 29 31 34 35 36 36 35 35 34 33 33 33 33 31 33 29 33 34 34 36 35 33 30 28 26 26 25 26 25 24
21 20 21 21 21 21 21 22 24 25 26 27 29 31 34 37 38 40 40 40 38 37 37 36 35 35 37 37 42 31 34 37 38 38 36 34 31 29 29 28 25 25 23
21 21 21 21 21 21 22 23 25 26 27 28 31 33 35 37 38 41 42 43 42 41 40 38 37 37 36 36 35 43 33 38 42 44 41 37 35 34 31 30 29 26 25
Wind_Direction
219 211 225 264 280 274 294 305 311 308 315 318 324 330 333 331 336 336 331 332 320 315 305 302 304 306 299 284 265 256 252 247 257 279 288 292 292 285 274 272 261 247 239
214 228 249 270 265 270 288 299 308 302 312 311 317 325 332 327 324 331 331 327 319 313 308 299 294 294 284 278 273 266 264 252 242 265 276 281 275 280 275 264 257 247 238
220 239 261 266 263 277 292 300 296 300 307 308 313 320 325 326 320 318 318 323 315 308 303 298 291 287 276 268 266 267 264 250 238 245 261 267 271 273 270 265 264 254 250
237 249 266 270 273 284 296 294 287 298 302 298 305 310 312 317 320 319 317 315 312 308 303 295 285 276 271 267 261 261 261 244 232 235 245 256 261 264 264 265 260 243 250
247 255 265 278 280 287 294 287 281 293 291 293 298 302 306 308 315 318 319 312 310 309 309 300 294 288 286 266 250 258 250 240 230 228 234 249 253 247 251 265 260 260 254
253 259 266 272 282 284 292 283 276 287 292 292 295 295 301 309 311 318 320 309 306 301 303 305 305 303 328 339 248 243 250 258 249 247 251 249 257 252 261 261 264 258 256
259 265 268 271 274 281 284 281 272 278 292 294 296 294 299 308 316 319 321 312 305 300 296 293 293 268 292 298 290 279 273 266 252 264 262 262 268 260 265 251 245 249 238
263 266 267 269 269 273 276 277 274 275 282 289 293 296 296 309 318 319 317 313 311 308 297 281 269 263 275 294 295 287 287 279 260 262 252 261 261 264 257 260 260 249 211
263 283 292 295 286 279 274 274 277 274 275 279 285 294 293 304 311 318 315 311 321 316 317 300 270 277 282 300 294 281 269 280 301 333 283 270 272 266 250 238 232 206 170
285 286 291 289 282 283 281 280 281 275 274 275 282 289 293 299 305 314 305 300 314 310 320 300 291 285 312 322 282 270 275 350 88 324 339 327 302 297 234 213 216 198 143
301 295 294 296 303 298 285 284 280 271 273 272 279 286 289 288 295 303 281 281 278 280 295 311 301 289 324 336 339 272 8 306 288 274 289 284 254 153 176 216 216 197 166
333 323 318 309 302 304 293 288 283 272 271 270 278 288 291 285 289 289 266 267 267 262 270 280 288 291 290 290 292 272 267 268 272 277 273 274 231 187 159 179 202 194 201
359 355 353 349 349 338 313 301 295 279 270 274 271 280 288 288 282 282 269 257 258 260 261 258 266 269 271 276 273 269 275 260 268 281 291 273 219 142 142 129 141 133 137
3 359 355 351 350 349 347 332 318 318 306 296 292 286 286 285 279 271 264 255 252 257 266 254 249 251 250 258 268 273 252 255 256 273 302 178 169 150 166 163 133 140 137
358 357 355 350 350 345 341 345 339 341 343 319 304 307 300 291 288 277 273 258 248 246 247 248 242 241 243 245 250 251 247 240 225 186 165 172 171 163 167 166 143 151 152
355 353 349 345 345 341 338 333 336 337 341 355 352 345 329 307 304 295 290 271 256 246 243 248 244 236 239 240 241 243 243 239 229 192 176 173 174 162 153 154 164 165 165
356 354 349 349 345 343 340 339 332 334 335 343 349 350 357 7 360 342 312 287 263 246 233 242 243 237 236 236 235 239 249 235 203 199 188 174 172 159 162 160 159 167 166
0 359 352 350 350 348 346 343 341 340 337 335 337 344 343 341 345 347 350 310 238 246 240 239 238 237 236 235 233 234 235 220 205 197 196 190 180 173 172 163 164 160 153
357 356 351 347 348 346 346 346 345 343 342 339 338 338 341 340 337 345 343 322 292 260 248 243 239 236 234 234 233 230 230 223 220 200 199 196 191 187 185 184 179 180 174
349 348 344 339 340 343 344 342 341 341 338 337 338 339 339 341 338 332 329 322 309 297 277 263 251 243 234 232 231 230 225 222 214 212 203 197 194 190 188 187 185 186 195
333 334 338 336 335 335 334 335 334 330 328 326 323 325 328 328 322 321 316 305 296 295 302 295 268 257 251 239 228 225 224 222 215 214 209 205 198 195 194 192 191 196 191
326 326 325 328 328 327 329 324 324 324 321 320 319 320 323 320 318 313 309 305 296 282 286 288 286 289 259 249 239 225 222 220 218 213 211 205 200 201 197 198 197 195 192
323 324 320 318 319 319 320 322 323 322 320 317 315 315 319 319 315 310 303 300 294 290 279 270 282 282 280 266 246 238 224 218 217 213 211 209 204 205 204 201 201 196 193
318 315 318 316 314 315 314 318 317 318 320 316 317 317 313 312 311 308 303 296 291 284 276 273 271 264 267 271 266 243 236 225 215 215 213 211 208 201 201 203 203 199 195
315 313 313 315 314 312 313 314 317 319 319 318 320 318 317 313 308 304 301 295 287 279 272 268 264 254 258 262 262 264 241 232 219 211 211 212 209 207 204 202 202 201 201
311 310 310 308 308 311 311 313 315 317 318 318 321 320 314 312 309 306 301 293 283 275 268 263 260 253 250 257 258 256 255 241 228 215 209 210 208 207 204 203 203 205 199